星链-37222(STARLINK-37222)

导读

STARLINK-37222(NORAD编号68663)是SpaceX星链互联网星座中的一颗卫星,隶属于SpaceX打造的近地轨道宽带互联网卫星系统,承担全球范围互联网接入服务任务。星链卫星通常运行在高度约550公里的近地轨道,采用模块化设计,配备可展开太阳能板与离子推进系统,可自主调整轨道,并具备离轨再入大气层能力。作为星链大规模组网的一员,它为偏远地区、移动载体提供低延迟宽带连接,支撑星链全球覆盖的服务目标,是SpaceX太空互联网基础设施建设的组成部分。

Basic Information
目录编号:
68663
目录名称:
STARLINK-37222
国际标识:
2026-077B
轨道中心:
EARTH
卫星名称:
星链-37222
卫星全名:
星链-37222(STARLINK-37222)
卫星状态:
在轨 (已飞行155 天)
发射日期:
2026-04-11 UTC
国别 :
美国 (US)
星等 :
--
This satellite is enrolled in the Space Conjunction Data Service (SCDS) and the current flight risk assessment level is: No High Risk
Orbit Information
数据来源 国际轨道数据
星历时间: 2026-09-13T10:09:47+0800
10小时前
查看轨道信息
半长轴: 6843.66km
偏心率: 0.0001827
轨道倾角: 97.286°
近地点辐角 86.809°
升交点赤经 126.034°
平近点角 273.336°
近地点: 464.272km
远地点: 466.774km
周期: 93.906分钟
每日圈数: 15.334518
Detailed Information
固有亮度:
5
最大亮度:
2.5
卫星平台:
Starlink V1.0
覆盖范围:
全球
运营商:
太空探索技术公司
运营商所在国:
美国
制造商(研发单位):
太空探索技术公司
制造商所在国:
美国
使用方式:
暂无
Satellite Introduction
Starlink 计划是 SpaceX 推出的全球卫星互联网项目,通过发射低轨道卫星,为全球尤其是偏远地区提供高速、低延迟的互联网服务。自 2019 年起,Starlink 已部署数千颗卫星,旨在缩小全球数字鸿沟,推动互联网普及。该项目还为军事、航空等行业提供通信支持,带来广泛经济效益。
2D Orbit Map
3D Orbit Map
Orbit Altitude Analysis Chart
Orbit Inclination Analysis Chart
Orbit Comprehensive Analysis Chart
View Comprehensive Chart
Conjunction Data List
Event ID Objects TCA Miss Dist (km) Collision Risk Probability Collision Risk Index (CRI) Action
CDM_260914-193205-503406-866321
2026-09-14T
19:32:07+0000
0.784 km
远距离
6.162766E-5 中风险 0.71
CDM_260915-065406-814306-866321
2026-09-15T
06:54:18+0000
1.725 km
极远距离
4.279416E-6 低风险 0.48
CDM_260914-082706-187006-866322
OBJECT B (61870)
2026-09-14T
08:27:47+0000
2.046 km
极远距离
2.714728E-6 低风险 0.44
CDM_260913-175305-298806-866323
2026-09-13T
17:53:01+0000
2.354 km
极远距离
1.963891E-6 低风险 0.41
CDM_260914-001805-326206-866321
2026-09-14T
00:18:23+0000
2.098 km
极远距离
1.959478E-6 低风险 0.41
CDM_260915-052006-814306-866321
2026-09-15T
05:20:20+0000
2.443 km
极远距离
1.816935E-6 低风险 0.4
CDM_260914-192006-462706-866322
OBJECT C (64627)
2026-09-14T
19:20:44+0000
2.474 km
极远距离
1.733741E-6 低风险 0.4
CDM_260915-051004-604306-866321
2026-09-15T
05:10:00+0000
2.628 km
极远距离
1.600242E-6 低风险 0.39
CDM_260915-045805-245806-866321
2026-09-15T
04:58:02+0000
2.781 km
极远距离
1.471462E-6 低风险 0.38
CDM_260914-233104-832906-866321
2026-09-14T
23:31:31+0000
2.818 km
极远距离
1.447254E-6 低风险 0.38
Miss Distance Evolution Trend with All Objects
Collision Probability Evolution Trend with All Objects